Flag for U.S.A. Weather past 2 weeks in Wichita Falls, Texas, U.S.A.

Now
63 °F

Clear.


Feels Like: 63 °F
Forecast: 58 / 82 °F
Wind: 8 mph from Southeast

Location: Wichita Falls - Sheppard Air Force Base

Current Time: Oct 21, 2014 at 11:24:14 PM

Latest Report: Oct 21, 2014 at 10:52 PM


Visibility: 10 mi

Pressure: 30.03 "Hg

Humidity: 65%

Dew point: 51 °F

Location of Wichita FallsLocation

Historic Weather in Wichita Falls — Graph

°F

Wichita Falls temperature yesterday

Maximum temperature yesterday: 83 °F (at 2:52 PM)
Minimum temperature yesterday: 56 °F (at 7:52 AM)
Average temperature yesterday: 68 °F

Past Weeks' High & Low Weather Summary

 TemperatureHumidityPressure
High98 °F (Oct 7, 2:52 PM)97% (Oct 10, 9:02 PM)30.16 "Hg (Oct 10, 9:02 PM)
Low48 °F (Oct 12, 6:52 AM)14% (Oct 7, 5:52 PM)29.52 "Hg (Oct 12, 9:52 PM)
Average68 °F62%29.92 "Hg
* Reported Oct 6 9:52 PM — Oct 21 9:52 PM, Wichita Falls, Weather by CustomWeather, © 2014

Note: Actual official high and low records may vary slightly from our data, if they occured in-between our weather recording intervals... More about our weather records

Advertising

Wichita Falls weather history for previous 24 hours

 ConditionsComfort  
Time TempWeatherWind HumidityBarometerVisibility
9:52 PM
Oct 21
65 °FClear.8 mph61%30.03 "Hg10 mi
8:52 PM64 °FClear.8 mph63%30.01 "Hg10 mi
7:52 PM70 °FClear.8 mph53%29.99 "Hg10 mi
6:52 PM75 °FSunny.9 mph45%29.98 "Hg10 mi
5:52 PM80 °FPassing clouds.12 mph35%29.98 "Hg10 mi
4:52 PM82 °FPassing clouds.10 mph34%29.98 "Hg10 mi
3:52 PM82 °FPassing clouds.12 mph35%29.98 "Hg10 mi
2:52 PM82 °FPassing clouds.8 mph41%29.99 "Hg10 mi
1:52 PM81 °FSunny.13 mph41%30.01 "Hg10 mi
12:52 PM80 °FPassing clouds.7 mph44%30.04 "Hg10 mi
11:52 AM77 °FSunny.3 mph52%30.06 "Hg10 mi
10:52 AM74 °FSunny.7 mph57%30.07 "Hg10 mi
9:52 AM68 °FSunny.5 mph73%30.08 "Hg9 mi
8:52 AM61 °FFog.No wind90%30.07 "Hg5 mi
7:52 AM58 °FFog.3 mph93%30.05 "Hg4 mi
6:52 AM59 °FClear.No wind90%30.03 "Hg7 mi
5:52 AM60 °FClear.3 mph86%30.03 "Hg8 mi
4:52 AM60 °FClear.5 mph86%30.02 "Hg9 mi
3:52 AM61 °FClear.6 mph83%30.01 "Hg10 mi
2:52 AM61 °FClear.8 mph83%30.01 "Hg10 mi
1:52 AM63 °FClear.9 mph81%30.01 "Hg10 mi
12:52 AM65 °FClear.9 mph78%30.00 "Hg10 mi
11:52 PM
Oct 20
65 °FClear.9 mph78%30.01 "Hg10 mi
Weather by CustomWeather, © 2014

See weather overviewHow to use our weather pages